Location: Clanezzo
(45.7500°N, 9.6000°E)
Time: 12:23:59
(UTC+00:00)

Cosmos 773 Rocket - Pass Details

Date: 12 May 2021
Orbit: 745 x 777 km, 74.1° (Epoch: 19 June)

Event Time Altitude Azimuth Distance (km) Brightness Sun altitude
Rises 19:32:03 0° 341° (NNW) 3,269 8.3 -8.1°
Reaches altitude 10° 19:34:29 10° 345° (NNW) 2,337 7.4 -8.4°
Maximum altitude 19:39:44 58° 65° (ENE) 906 4.3 -9.1°
Enters shadow 19:44:36 12° 143° (SE) 2,197 5.7 -9.8°
